Overview Statistics Trail Chart Weather Telemetry Raw packets
 

This is the latest recevied weather packets stored in our database for station/object NK7E-2. If no packets are shown the sender has not sent any weather packets the latest 10 day(s).

<< 1 2 3 4 5 6 >>
Time Temp. Humidity Pressure Rain* Wind** Luminosity Snow
1788439217 25.56° C 60% 1027.4 hPa 0 mm - - -
1788438617 25.56° C 59% 1027.2 hPa 0 mm - - -
1788438017 25.56° C 58% 1027.2 hPa 0 mm - - -
1788437417 25.56° C 59% 1027.3 hPa 0 mm - - -
1788436817 25.56° C 59% 1026.9 hPa 0 mm - - -
1788436217 25.56° C 58% 1026.8 hPa 0 mm - - -
1788435617 25.56° C 58% 1026.9 hPa 0 mm - - -
1788435017 25.56° C 61% 1026.9 hPa 0 mm - - -
1788434417 25.56° C 61% 1026.9 hPa 0 mm - - -
1788433817 25.56° C 61% 1027 hPa 0 mm - - -
1788433217 25.56° C 59% 1026.9 hPa 0 mm - - -
1788432617 25.56° C 59% 1027.2 hPa 0 mm - - -
1788432017 25.56° C 59% 1027.1 hPa 0 mm - - -
1788431416 26.11° C 59% 1027.5 hPa 0 mm - - -
1788430817 26.11° C 57% 1027.5 hPa 0 mm - - -
1788430216 26.67° C 56% 1027.5 hPa 0 mm - - -
1788429616 26.67° C 55% 1027.9 hPa 0 mm - - -
1788429016 26.11° C 57% 1027.7 hPa 0 mm - - -
1788428416 25.56° C 59% 1027.6 hPa 0 mm - - -
1788427816 25.56° C 59% 1027.8 hPa 0 mm - - -
1788427216 26.11° C 58% 1027.8 hPa 0 mm - - -
1788426616 26.11° C 57% 1027.7 hPa 0 mm - - -
1788426016 26.11° C 56% 1027.6 hPa 0 mm - - -
1788425416 26.11° C 56% 1027.7 hPa 0 mm - - -
1788424816 26.11° C 56% 1027.6 hPa 0 mm - - -

* Rain latest hour (hover to see other rain measurements)
** Current wind speed in m/s (hover to see current wind gust speed)